Location: Sternwarte ZA, Rosenfeld-Brittheim
(48.2889°N, 8.6789°E)
Time: 15:16:09
(UTC+02:00)

ISS - Pass Details

Date: 15 October 2017
Orbit: 401 x 408 km, 51.6° (Epoch: 18 October)

Event Time Altitude Azimuth Distance (km) Brightness Sun altitude
Rises 19:57:35 0° 284° (WNW) 2,325 1.8 -14.3°
Reaches altitude 10° 20:00:19 10° 259° (W) 1,462 0.3 -14.7°
Maximum altitude 20:02:14 15° 223° (SW) 1,209 -0.9 -15.1°
Drops below altitude 10° 20:04:08 10° 187° (S) 1,458 -1.0 -15.4°
Enters shadow 20:06:02 - 168° (SSE) 2,023 -0.5 -15.7°
